"startDT [UTC]","vpos","CH4 [ppm]","stdev(CH4) [ppm]","CO2 [ppm]","stdev(CO2) [ppm]","H2O [ppm]","stdev(H2O)","p_LGR [torr]","T_LGR [C]","mt1_LGR [us]","mt2_LGR [us]","T_ECpre [C]","T_EC1 [C]","T_EC2 [C]","p_inlet [hPa]","p_in [hPa]","p_out [hPa]","T_inlet [C]","RH_inlet [%]","dwpt_inlet [C]","T_vent [C]","RH_vent [%]","dwpt_vent [C]","flow_vent [l min-1]","flow_inlet [l min-1]","dwpt_sample [C]","T_room [C]"
2012-06-23 00:00:00,0.0,1.8801,0.0010,397.87,0.26,22.2,23.2,138.08,30.53,24.64,36.42,0.92,-26.13,17.02,-60,542,-938,25.8,17.2,-0.9,25.8,1.5,-30.2,5.73,2.41,-27.7,30.2
2012-06-23 00:01:00,0.0,1.8796,0.0009,397.77,0.27,23.8,25.2,138.08,30.53,24.64,36.42,0.93,-26.12,17.11,-60,542,-938,25.8,17.2,-0.9,25.8,1.5,-30.1,5.73,2.41,-27.6,30.2
2012-06-23 00:02:00,0.0,1.8798,0.0011,397.82,0.27,23.2,22.8,138.08,30.54,24.64,36.42,0.93,-26.12,17.19,-60,542,-937,25.9,17.3,-0.8,25.8,1.5,-30.2,5.73,2.41,-27.7,30.2
2012-06-23 00:03:00,0.0,1.8798,0.0010,397.68,0.30,25.3,26.4,138.08,30.54,24.64,36.42,0.94,-26.12,17.27,-60,542,-937,25.8,18.1,-0.3,25.8,1.5,-30.2,5.73,2.40,-27.6,30.1
2012-06-23 00:04:00,0.0,1.8800,0.0009,397.70,0.28,26.1,29.1,138.08,30.55,24.64,36.43,0.95,-26.12,17.34,-60,542,-937,25.8,17.6,-0.6,25.8,1.5,-30.2,5.73,2.39,-27.6,30.1
2012-06-23 00:05:00,0.0,1.8796,0.0010,397.71,0.29,19.4,23.1,138.08,30.55,24.64,36.43,0.95,-26.11,17.42,-60,542,-938,25.9,17.5,-0.7,25.8,1.5,-30.2,5.73,2.39,-27.6,30.1
2012-06-23 00:06:00,0.0,1.8791,0.0009,397.86,0.31,27.7,26.8,138.08,30.56,24.65,36.42,0.95,-26.11,17.49,-60,542,-937,25.9,16.7,-1.3,25.8,1.5,-30.3,5.73,2.39,-27.6,30.1
2012-06-23 00:07:00,0.0,1.8795,0.0010,397.88,0.29,27.7,27.8,138.08,30.56,24.64,36.43,0.95,-26.11,17.56,-60,542,-937,25.9,16.6,-1.4,25.8,1.5,-30.4,5.73,2.40,-27.6,30.1
2012-06-23 00:08:00,0.0,1.8795,0.0009,397.87,0.31,26.7,26.5,138.08,30.56,24.64,36.42,0.94,-26.11,17.62,-60,542,-937,25.9,16.9,-1.2,25.8,1.5,-30.3,5.73,2.40,-27.6,30.1
2012-06-23 00:09:00,0.0,1.8795,0.0009,397.89,0.27,23.9,24.0,138.08,30.56,24.64,36.42,0.95,-26.11,17.68,-60,542,-938,25.9,16.6,-1.3,25.8,1.5,-30.3,5.73,2.40,-27.6,30.2
2012-06-23 00:10:00,0.0,1.8795,0.0008,397.88,0.25,22.3,24.4,138.08,30.56,24.64,36.42,0.94,-26.10,17.74,-61,542,-937,25.9,16.9,-1.1,25.8,1.5,-30.3,5.73,2.40,-27.6,30.2
2012-06-23 00:11:00,0.0,1.8797,0.0010,397.98,0.27,30.3,23.2,138.08,30.57,24.64,36.42,0.94,-26.11,17.80,-60,542,-937,25.9,16.8,-1.3,25.8,1.5,-30.3,5.73,2.41,-27.6,30.2
2012-06-23 00:12:00,0.0,1.8799,0.0009,397.95,0.27,25.9,24.1,138.08,30.57,24.64,36.42,0.93,-26.11,17.85,-60,542,-937,25.9,16.9,-1.1,25.8,1.5,-30.3,5.73,2.41,-27.6,30.2
2012-06-23 00:13:00,0.0,1.8794,0.0010,397.93,0.25,21.4,23.3,138.08,30.57,24.64,36.42,0.91,-26.10,17.90,-60,542,-938,25.9,16.8,-1.2,25.8,1.5,-30.4,5.73,2.40,-27.6,30.2
2012-06-23 00:14:00,0.0,1.8795,0.0012,397.77,0.31,28.4,27.1,138.08,30.57,24.64,36.42,0.90,-26.10,17.95,-60,542,-937,25.9,16.8,-1.2,25.8,1.5,-30.3,5.73,2.40,-27.6,30.2
2012-06-23 00:15:00,0.0,1.8798,0.0009,397.97,0.29,28.7,26.5,138.08,30.57,24.64,36.42,0.90,-26.10,18.00,-60,542,-937,25.9,16.9,-1.1,25.8,1.5,-30.3,5.73,2.40,-27.6,30.2
2012-06-23 00:16:00,0.0,1.8798,0.0009,397.90,0.30,28.2,25.7,138.08,30.58,24.64,36.42,0.92,-26.10,18.04,-61,542,-937,25.9,16.9,-1.2,25.8,1.5,-30.3,5.73,2.39,-27.6,30.2
2012-06-23 00:17:00,0.0,1.8794,0.0010,397.87,0.25,23.0,26.4,138.08,30.58,24.64,36.42,0.94,-26.11,18.08,-61,542,-938,25.9,16.9,-1.1,25.8,1.5,-30.3,5.73,2.40,-27.6,30.2
2012-06-23 00:18:00,0.0,1.8799,0.0010,397.88,0.26,25.9,23.8,138.08,30.59,24.64,36.42,0.91,-26.10,18.13,-61,542,-937,25.9,16.9,-1.1,25.8,1.5,-30.3,5.73,2.39,-27.6,30.2
2012-06-23 00:19:00,0.0,1.8795,0.0009,397.87,0.26,20.6,23.8,138.08,30.59,24.64,36.41,0.93,-26.10,18.16,-61,542,-937,25.9,16.9,-1.1,25.8,1.5,-30.3,5.73,2.40,-27.6,30.2
2012-06-23 00:20:00,0.0,1.8790,0.0009,397.85,0.27,21.9,25.2,138.08,30.59,24.64,36.42,0.94,-26.10,18.20,-61,542,-937,25.9,16.7,-1.3,25.8,1.5,-30.4,5.73,2.40,-27.6,30.2
2012-06-23 00:21:00,0.0,1.8787,0.0011,397.87,0.28,22.9,21.8,138.08,30.59,24.65,36.42,0.94,-26.10,18.23,-61,542,-938,25.9,16.4,-1.5,25.8,1.5,-30.3,5.73,2.40,-27.6,30.2
2012-06-23 00:22:00,0.0,1.8789,0.0010,397.91,0.24,21.8,23.7,138.08,30.60,24.64,36.42,0.94,-26.10,18.27,-61,542,-937,25.9,16.6,-1.3,25.9,1.5,-30.3,5.73,2.41,-27.6,30.2
2012-06-23 00:23:00,0.0,1.8788,0.0010,397.88,0.29,24.1,23.5,138.08,30.60,24.64,36.42,0.95,-26.10,18.30,-61,542,-937,25.9,16.6,-1.4,25.9,1.5,-30.3,5.73,2.41,-27.6,30.2
2012-06-23 00:24:00,0.0,1.8790,0.0011,397.86,0.34,24.0,24.6,138.08,30.60,24.64,36.41,0.94,-26.10,18.33,-61,542,-937,25.9,16.6,-1.3,25.9,1.5,-30.3,5.73,2.40,-27.6,30.2
2012-06-23 00:25:00,0.0,1.8792,0.0011,397.75,0.34,20.8,23.7,138.08,30.60,24.64,36.42,0.96,-26.09,18.37,-60,542,-937,25.9,16.6,-1.3,25.9,1.5,-30.3,5.73,2.40,-27.6,30.2
2012-06-23 00:26:00,0.0,1.8790,0.0009,397.89,0.29,23.3,20.9,138.08,30.61,24.64,36.41,0.96,-26.10,18.40,-60,542,-937,25.9,16.4,-1.5,25.9,1.5,-30.3,5.73,2.40,-27.6,30.2
2012-06-23 00:27:00,0.0,1.8784,0.0010,397.84,0.33,26.7,22.3,138.08,30.61,24.64,36.42,0.95,-26.10,18.43,-60,542,-937,25.9,16.2,-1.7,25.9,1.5,-30.3,5.73,2.40,-27.6,30.2
2012-06-23 00:28:00,0.0,1.8788,0.0008,397.80,0.29,30.2,25.9,138.08,30.61,24.64,36.42,0.95,-26.09,18.45,-60,542,-938,25.9,16.5,-1.4,25.9,1.5,-30.3,5.73,2.40,-27.6,30.2
2012-06-23 00:29:00,0.0,1.8786,0.0008,397.76,0.31,22.8,28.2,138.08,30.62,24.64,36.42,0.95,-26.10,18.48,-60,542,-937,25.9,16.5,-1.4,25.9,1.5,-30.3,5.73,2.39,-27.5,30.2
2012-06-23 00:30:00,0.0,1.8787,0.0008,398.01,0.21,28.1,31.0,138.08,30.62,24.64,36.42,0.94,-26.10,18.50,-61,542,-937,25.9,16.2,-1.6,25.9,1.5,-30.3,5.73,2.39,-27.6,30.2
2012-06-23 00:31:00,0.0,1.8786,0.0009,397.91,0.32,31.1,25.0,138.08,30.62,24.64,36.42,0.93,-26.10,18.53,-60,542,-938,25.9,16.5,-1.4,25.9,1.5,-30.3,5.73,2.40,-27.6,30.3
2012-06-23 00:32:00,0.0,1.8786,0.0009,397.83,0.31,27.7,24.0,138.08,30.63,24.65,36.42,0.92,-26.10,18.55,-61,542,-937,25.9,16.9,-1.1,25.9,1.5,-30.3,5.73,2.40,-27.6,30.2
2012-06-23 00:33:00,0.0,1.8789,0.0009,397.92,0.29,23.2,27.6,138.08,30.63,24.64,36.41,0.95,-26.10,18.57,-61,542,-937,25.9,16.6,-1.3,25.9,1.5,-30.3,5.73,2.41,-27.6,30.2
2012-06-23 00:34:00,0.0,1.8788,0.0008,397.90,0.28,21.1,21.7,138.08,30.63,24.64,36.42,0.93,-26.10,18.59,-61,542,-937,25.9,16.5,-1.4,25.9,1.5,-30.3,5.73,2.41,-27.6,30.2
2012-06-23 00:35:00,0.0,1.8791,0.0009,397.81,0.29,22.1,26.4,138.08,30.63,24.64,36.42,0.92,-26.10,18.62,-61,542,-938,25.9,16.8,-1.1,25.9,1.5,-30.3,5.73,2.40,-27.5,30.2
2012-06-23 00:36:00,0.0,1.8791,0.0009,397.95,0.29,25.9,24.0,138.08,30.64,24.64,36.42,0.93,-26.10,18.63,-61,542,-937,26.0,16.6,-1.3,25.9,1.5,-30.3,5.73,2.40,-27.5,30.2
2012-06-23 00:37:00,0.0,1.8788,0.0009,397.80,0.28,22.0,23.4,138.08,30.64,24.64,36.42,0.91,-26.10,18.65,-61,542,-937,25.9,16.6,-1.3,25.9,1.5,-30.4,5.73,2.40,-27.5,30.2
2012-06-23 00:38:00,0.0,1.8796,0.0010,397.79,0.33,28.1,24.2,138.08,30.64,24.64,36.42,0.93,-26.10,18.67,-61,542,-937,26.0,16.7,-1.2,25.9,1.5,-30.4,5.73,2.39,-27.5,30.2
2012-06-23 00:39:00,0.0,1.8791,0.0011,397.68,0.25,21.1,26.1,138.08,30.64,24.64,36.43,0.92,-26.10,18.69,-61,542,-938,26.0,17.0,-0.9,25.9,1.5,-30.4,5.73,2.39,-27.5,30.2
2012-06-23 00:40:00,1.0,1.8945,0.0106,387.89,6.91,18.6,25.2,138.08,30.65,24.64,36.42,0.93,-26.09,18.70,-60,588,-937,26.0,17.3,-0.7,25.9,1.5,-30.4,5.73,2.40,-27.5,30.2
2012-06-23 00:41:00,1.0,1.9072,0.0009,379.88,0.25,18.2,22.1,138.08,30.65,24.64,36.42,0.93,-26.10,18.71,-60,586,-937,26.0,17.3,-0.7,25.9,1.5,-30.3,5.73,2.39,-27.5,30.3
2012-06-23 00:42:00,1.0,1.9068,0.0009,379.71,0.28,16.9,21.1,138.07,30.65,24.65,36.43,0.94,-26.09,18.73,-61,585,-937,26.0,16.7,-1.2,25.9,1.4,-30.5,5.73,2.39,-27.5,30.3
2012-06-23 00:43:00,1.0,1.9067,0.0010,379.72,0.27,14.2,21.3,138.08,30.66,24.64,36.42,0.93,-26.09,18.75,-61,585,-938,26.0,16.9,-1.0,25.9,1.4,-30.5,5.73,2.40,-27.5,30.3
2012-06-23 00:44:00,1.0,1.9066,0.0009,379.64,0.27,18.7,25.8,138.08,30.66,24.64,36.43,0.95,-26.09,18.76,-61,584,-937,26.0,16.4,-1.4,25.9,1.4,-30.5,5.73,2.40,-27.5,30.3
2012-06-23 00:45:00,0.0,1.8907,0.0110,389.76,7.16,20.0,25.5,138.08,30.66,24.65,36.43,1.07,-26.09,18.52,-61,541,-937,26.0,16.1,-1.7,25.9,1.4,-30.5,5.73,2.39,-27.5,30.3
2012-06-23 00:46:00,0.0,1.8784,0.0010,397.84,0.32,30.6,26.3,138.08,30.66,24.64,36.41,1.18,-26.08,16.86,-61,542,-937,26.0,16.2,-1.6,26.0,1.4,-30.4,5.73,2.40,-27.5,30.3
2012-06-23 00:47:00,0.0,1.8782,0.0009,397.72,0.32,26.1,26.8,138.08,30.67,24.64,36.42,1.11,-26.09,14.53,-61,542,-937,26.0,16.4,-1.4,26.0,1.4,-30.4,5.73,2.40,-27.5,30.4
2012-06-23 00:48:00,0.0,1.8782,0.0010,397.74,0.27,26.2,23.8,138.08,30.67,24.64,36.42,0.93,-26.14,12.13,-61,542,-938,26.0,16.4,-1.4,26.0,1.4,-30.4,5.73,2.41,-27.5,30.3
2012-06-23 00:49:00,0.0,1.8780,0.0012,397.60,0.27,24.5,24.1,138.08,30.67,24.65,36.42,1.04,-26.18,9.76,-61,542,-938,26.0,16.5,-1.3,26.0,1.4,-30.4,5.73,2.40,-27.5,30.3
2012-06-23 00:50:00,0.0,1.8778,0.0012,397.71,0.28,19.6,24.4,138.08,30.68,24.64,36.42,1.06,-26.20,7.48,-61,542,-938,26.1,16.1,-1.7,26.0,1.4,-30.4,5.73,2.41,-27.6,30.3
2012-06-23 00:51:00,0.0,1.8777,0.0011,397.66,0.27,22.8,27.7,138.08,30.68,24.64,36.41,1.08,-26.20,5.32,-61,542,-938,26.1,15.9,-1.8,26.0,1.4,-30.5,5.73,2.40,-27.6,30.3
2012-06-23 00:52:00,0.0,1.8776,0.0009,397.63,0.30,20.8,25.2,138.08,30.68,24.65,36.42,0.97,-26.21,3.25,-61,542,-937,26.1,15.7,-1.9,26.0,1.4,-30.4,5.73,2.40,-27.6,30.3
2012-06-23 00:53:00,0.0,1.8778,0.0010,397.65,0.31,18.8,22.8,138.08,30.68,24.64,36.41,1.05,-26.20,1.31,-61,542,-937,26.1,16.7,-1.2,26.0,1.4,-30.4,5.73,2.40,-27.6,30.3
2012-06-23 00:54:00,0.0,1.8775,0.0007,397.52,0.27,22.1,25.1,138.08,30.68,24.64,36.42,1.09,-26.20,-0.53,-61,542,-938,26.1,16.5,-1.3,26.0,1.4,-30.4,5.73,2.40,-27.6,30.3
2012-06-23 00:55:00,0.0,1.8779,0.0009,397.60,0.34,21.3,21.2,138.07,30.69,24.64,36.42,0.98,-26.20,-2.27,-61,542,-938,26.1,16.2,-1.5,26.0,1.4,-30.4,5.73,2.40,-27.6,30.3
2012-06-23 00:56:00,0.0,1.8776,0.0009,397.53,0.27,20.7,22.9,138.08,30.69,24.65,36.43,1.05,-26.20,-3.58,-61,542,-937,26.1,16.5,-1.3,26.0,1.4,-30.4,5.73,2.40,-27.7,30.2
2012-06-23 00:57:00,0.0,1.8778,0.0008,397.49,0.26,21.7,22.6,138.08,30.69,24.65,36.42,1.07,-26.20,-5.11,-61,542,-937,26.1,16.4,-1.4,26.0,1.4,-30.5,5.73,2.40,-27.7,30.2
2012-06-23 00:58:00,0.0,1.8776,0.0009,397.55,0.33,25.1,28.0,138.08,30.69,24.65,36.42,0.97,-26.20,-6.57,-61,542,-937,26.1,16.3,-1.5,26.0,1.4,-30.4,5.73,2.40,-27.7,30.2
2012-06-23 00:59:00,0.0,1.8781,0.0012,397.53,0.29,17.2,23.0,138.08,30.69,24.64,36.43,1.04,-26.19,-7.88,-61,542,-938,26.1,16.2,-1.5,26.0,1.4,-30.5,5.73,2.40,-27.7,30.2
2012-06-23 01:00:00,0.0,1.8773,0.0010,397.53,0.32,18.0,23.7,138.08,30.69,24.65,36.42,1.09,-26.20,-9.13,-61,542,-937,26.1,16.6,-1.2,26.0,1.4,-30.4,5.73,2.40,-27.7,30.2
2012-06-23 01:01:00,0.0,1.8780,0.0010,397.63,0.29,13.0,20.9,138.07,30.70,24.64,36.42,0.98,-26.20,-10.28,-61,542,-937,26.1,16.2,-1.5,26.0,1.4,-30.4,5.73,2.40,-27.7,30.2
2012-06-23 01:02:00,0.0,1.8773,0.0009,397.55,0.30,18.9,22.2,138.07,30.70,24.64,36.42,1.00,-26.20,-11.38,-61,542,-937,26.1,16.2,-1.5,26.0,1.4,-30.4,5.73,2.40,-27.7,30.2
2012-06-23 01:03:00,0.0,1.8778,0.0009,397.63,0.26,11.6,15.7,138.07,30.70,24.64,36.42,1.08,-26.20,-12.42,-61,542,-937,26.1,16.1,-1.6,26.0,1.4,-30.4,5.73,2.40,-27.8,30.2
2012-06-23 01:04:00,0.0,1.8776,0.0011,397.48,0.30,20.4,30.1,138.08,30.71,24.65,36.42,1.03,-26.21,-13.33,-61,542,-938,26.1,16.2,-1.6,26.0,1.4,-30.4,5.73,2.40,-27.7,30.3
2012-06-23 01:05:00,0.0,1.8778,0.0009,397.48,0.31,13.4,18.9,138.08,30.71,24.64,36.42,0.97,-26.21,-14.24,-61,542,-937,26.1,16.0,-1.7,26.0,1.4,-30.5,5.73,2.40,-27.7,30.3
2012-06-23 01:06:00,0.0,1.8776,0.0011,397.56,0.33,16.8,21.2,138.08,30.71,24.64,36.42,1.04,-26.21,-15.12,-61,542,-937,26.1,16.1,-1.6,26.0,1.4,-30.4,5.73,2.41,-27.7,30.3
2012-06-23 01:07:00,0.0,1.8779,0.0011,397.50,0.28,19.2,21.5,138.08,30.72,24.64,36.42,1.07,-26.22,-16.01,-61,542,-937,26.1,16.2,-1.5,26.0,1.4,-30.4,5.73,2.40,-27.7,30.3
2012-06-23 01:08:00,0.0,1.8775,0.0009,397.41,0.27,22.0,24.1,138.08,30.72,24.65,36.42,1.00,-26.23,-16.83,-61,542,-938,26.1,16.5,-1.3,26.0,1.4,-30.5,5.73,2.40,-27.7,30.3
2012-06-23 01:09:00,0.0,1.8776,0.0009,397.52,0.24,19.5,24.5,138.08,30.72,24.64,36.41,0.97,-26.23,-17.49,-61,542,-938,26.1,16.1,-1.6,26.0,1.4,-30.4,5.73,2.40,-27.8,30.2
2012-06-23 01:10:00,0.0,1.8774,0.0010,397.46,0.29,19.1,21.8,138.08,30.73,24.65,36.41,1.04,-26.24,-18.22,-61,542,-937,26.1,16.4,-1.4,26.0,1.4,-30.5,5.73,2.41,-27.7,30.2
2012-06-23 01:11:00,0.0,1.8779,0.0011,397.37,0.28,18.6,22.7,138.08,30.73,24.64,36.42,1.06,-26.25,-18.92,-61,542,-937,26.1,16.5,-1.3,26.0,1.4,-30.7,5.73,2.40,-27.8,30.3
2012-06-23 01:12:00,0.0,1.8774,0.0009,397.34,0.22,20.0,26.3,138.07,30.73,24.64,36.42,1.00,-26.26,-19.58,-61,542,-938,26.1,16.0,-1.7,26.0,1.4,-30.6,5.73,2.41,-27.7,30.3
2012-06-23 01:13:00,0.0,1.8772,0.0010,397.29,0.29,12.7,20.3,138.08,30.73,24.64,36.42,0.98,-26.26,-20.19,-61,542,-937,26.1,16.1,-1.7,26.0,1.4,-30.6,5.73,2.40,-27.8,30.3
2012-06-23 01:14:00,0.0,1.8770,0.0009,397.26,0.31,16.7,23.9,138.07,30.74,24.65,36.42,1.04,-26.27,-20.77,-61,542,-937,26.1,15.6,-2.1,26.0,1.4,-30.6,5.73,2.40,-27.7,30.3
2012-06-23 01:15:00,0.0,1.8778,0.0008,397.27,0.28,19.3,22.8,138.07,30.74,24.64,36.42,1.05,-26.28,-21.31,-61,542,-937,26.1,15.9,-1.8,26.0,1.4,-30.6,5.73,2.41,-27.8,30.3
2012-06-23 01:16:00,0.0,1.8776,0.0010,397.27,0.26,23.1,24.9,138.08,30.74,24.64,36.42,1.00,-26.29,-21.82,-61,542,-937,26.1,15.8,-1.9,26.0,1.4,-30.7,5.73,2.40,-27.7,30.3
2012-06-23 01:17:00,0.0,1.8774,0.0011,397.18,0.29,17.5,20.6,138.08,30.74,24.64,36.42,0.97,-26.30,-22.30,-61,542,-938,26.1,15.9,-1.8,26.0,1.4,-30.7,5.73,2.40,-27.8,30.3
2012-06-23 01:18:00,0.0,1.8773,0.0013,397.18,0.32,13.1,17.4,138.08,30.75,24.64,36.42,1.02,-26.31,-22.75,-61,542,-937,26.1,15.6,-2.0,26.0,1.4,-30.6,5.73,2.40,-27.8,30.3
2012-06-23 01:19:00,0.0,1.8775,0.0011,397.20,0.28,21.0,24.6,138.07,30.75,24.64,36.41,1.08,-26.32,-23.17,-61,542,-937,26.1,15.9,-1.8,26.0,1.4,-30.6,5.73,2.40,-27.8,30.3
2012-06-23 01:20:00,0.0,1.8770,0.0009,397.21,0.26,16.4,22.4,138.07,30.75,24.65,36.42,0.99,-26.34,-23.56,-61,542,-937,26.1,15.5,-2.2,26.0,1.4,-30.6,5.73,2.40,-27.8,30.3
2012-06-23 01:21:00,0.0,1.8776,0.0010,397.17,0.28,18.0,22.2,138.08,30.75,24.64,36.41,0.97,-26.35,-23.94,-61,542,-938,26.1,15.8,-1.9,26.0,1.4,-30.6,5.73,2.40,-27.8,30.3
2012-06-23 01:22:00,0.0,1.8775,0.0010,397.12,0.30,19.0,23.8,138.07,30.76,24.64,36.42,1.02,-26.36,-24.29,-61,542,-937,26.1,15.8,-1.9,26.0,1.4,-30.7,5.73,2.40,-27.8,30.3
2012-06-23 01:23:00,0.0,1.8776,0.0012,397.04,0.29,21.5,25.3,138.07,30.76,24.64,36.42,1.06,-26.37,-24.61,-61,542,-937,26.0,15.8,-1.9,26.0,1.4,-30.6,5.73,2.40,-27.8,30.2
2012-06-23 01:24:00,0.0,1.8777,0.0010,397.13,0.27,13.3,18.5,138.07,30.77,24.64,36.42,1.02,-26.38,-24.91,-61,542,-937,26.1,15.7,-2.0,26.0,1.4,-30.6,5.73,2.40,-27.8,30.2
2012-06-23 01:25:00,0.0,1.8778,0.0009,397.07,0.26,19.2,25.7,138.07,30.77,24.64,36.42,0.96,-26.39,-25.19,-61,542,-937,26.1,15.9,-1.8,26.0,1.4,-30.7,5.73,2.40,-27.8,30.3
2012-06-23 01:26:00,0.0,1.8776,0.0011,397.09,0.27,17.1,23.4,138.07,30.77,24.64,36.42,0.98,-26.40,-25.44,-61,542,-937,26.1,15.8,-1.9,26.0,1.4,-30.6,5.73,2.40,-27.8,30.3
2012-06-23 01:27:00,0.0,1.8775,0.0010,397.14,0.24,15.1,20.0,138.07,30.78,24.64,36.42,1.04,-26.41,-25.70,-61,542,-937,26.1,16.2,-1.5,26.0,1.4,-30.6,5.73,2.40,-27.8,30.3
2012-06-23 01:28:00,0.0,1.8778,0.0010,397.09,0.27,16.6,20.1,138.07,30.78,24.64,36.42,1.07,-26.41,-25.94,-61,542,-937,26.1,16.1,-1.7,26.0,1.4,-30.7,5.73,2.40,-27.8,30.3
2012-06-23 01:29:00,0.0,1.8776,0.0012,397.06,0.31,21.9,26.0,138.07,30.78,24.65,36.42,0.97,-26.42,-26.17,-61,542,-937,26.1,16.0,-1.7,26.0,1.4,-30.6,5.73,2.40,-27.8,30.2
2012-06-23 01:30:00,0.0,1.8779,0.0010,396.98,0.30,13.5,20.2,138.07,30.78,24.64,36.42,0.98,-26.43,-26.39,-61,542,-937,26.1,16.0,-1.7,26.0,1.4,-30.7,5.73,2.40,-27.8,30.3
2012-06-23 01:31:00,0.0,1.8782,0.0009,397.08,0.27,23.2,26.4,138.07,30.78,24.64,36.42,0.97,-26.44,-26.30,-61,543,-937,26.1,15.8,-1.9,26.0,1.4,-30.7,5.73,2.40,-27.8,30.3
2012-06-23 01:32:00,0.0,1.8780,0.0010,397.04,0.25,20.0,22.0,138.07,30.79,24.64,36.42,1.07,-26.45,-26.20,-61,542,-937,26.1,15.9,-1.8,26.0,1.4,-30.6,5.73,2.40,-27.8,30.3
2012-06-23 01:33:00,0.0,1.8778,0.0010,396.96,0.30,14.4,19.0,138.07,30.79,24.64,36.42,1.04,-26.45,-26.35,-61,542,-937,26.1,16.4,-1.4,26.0,1.4,-30.7,5.73,2.40,-27.8,30.3
2012-06-23 01:34:00,0.0,1.8778,0.0011,397.00,0.32,21.1,22.2,138.07,30.79,24.65,36.42,0.91,-26.46,-26.42,-61,543,-937,26.1,16.1,-1.6,26.0,1.4,-30.8,5.73,2.40,-27.8,30.3
2012-06-23 01:35:00,0.0,1.8780,0.0012,397.03,0.33,20.5,25.9,138.07,30.79,24.64,36.42,1.00,-26.47,-26.20,-61,543,-938,26.1,16.3,-1.5,26.0,1.4,-30.8,5.73,2.40,-27.8,30.3
2012-06-23 01:36:00,0.0,1.8781,0.0010,396.98,0.29,9.4,16.6,138.07,30.79,24.64,36.42,1.05,-26.47,-26.31,-61,543,-937,26.1,16.4,-1.4,26.0,1.4,-30.8,5.73,2.40,-27.8,30.3
2012-06-23 01:37:00,0.0,1.8785,0.0010,397.06,0.28,17.9,22.2,138.07,30.80,24.64,36.41,1.04,-26.47,-26.48,-61,543,-937,26.1,16.3,-1.5,26.0,1.4,-30.8,5.73,2.40,-27.8,30.3
2012-06-23 01:38:00,0.0,1.8786,0.0010,396.95,0.28,23.0,24.4,138.07,30.80,24.64,36.42,0.96,-26.49,-26.26,-61,543,-937,26.1,16.2,-1.6,26.0,1.4,-30.9,5.73,2.40,-27.8,30.3
2012-06-23 01:39:00,0.0,1.8783,0.0008,396.96,0.29,20.6,20.5,138.07,30.80,24.65,36.42,0.97,-26.49,-26.27,-61,543,-937,26.1,16.2,-1.5,26.0,1.4,-30.8,5.73,2.40,-27.8,30.3
2012-06-23 01:40:00,0.0,1.8780,0.0008,397.06,0.30,18.1,18.7,138.07,30.80,24.64,36.41,0.98,-26.50,-26.44,-61,542,-937,26.1,16.2,-1.5,26.0,1.4,-30.8,5.73,2.40,-27.7,30.3
2012-06-23 01:41:00,0.0,1.8787,0.0011,396.92,0.29,17.4,24.4,138.07,30.81,24.64,36.42,0.94,-26.50,-26.40,-61,543,-937,26.1,16.5,-1.3,26.0,1.4,-30.9,5.73,2.40,-27.8,30.4
2012-06-23 01:42:00,0.0,1.8787,0.0010,397.12,0.33,19.9,26.4,138.07,30.81,24.65,36.41,1.05,-26.51,-26.24,-61,543,-937,26.1,16.3,-1.5,26.0,1.4,-30.8,5.73,2.40,-27.7,30.4
2012-06-23 01:43:00,0.0,1.8791,0.0010,397.00,0.34,14.9,20.0,138.07,30.82,24.64,36.42,1.07,-26.51,-26.39,-61,543,-937,26.1,16.2,-1.5,26.0,1.4,-30.8,5.73,2.40,-27.7,30.4
2012-06-23 01:44:00,0.0,1.8788,0.0010,396.92,0.32,16.3,20.5,138.07,30.82,24.65,36.42,0.97,-26.22,-26.57,-61,543,-937,26.1,16.4,-1.3,26.0,1.4,-31.0,5.73,2.40,-27.7,30.4
2012-06-23 01:45:00,0.0,1.8794,0.0010,396.93,0.28,21.3,26.5,138.07,30.83,24.64,36.42,0.87,-24.69,-26.74,-61,543,-937,26.1,16.2,-1.5,26.0,1.4,-30.7,5.73,2.41,-27.8,30.4
2012-06-23 01:46:00,0.0,1.8793,0.0011,396.90,0.31,16.9,22.7,138.07,30.83,24.64,36.42,0.87,-22.76,-26.86,-61,543,-937,26.1,16.6,-1.2,26.0,1.5,-29.8,5.73,2.40,-27.8,30.3
2012-06-23 01:47:00,0.0,1.8794,0.0009,396.88,0.27,18.7,23.2,138.07,30.83,24.64,36.41,0.89,-20.83,-26.93,-61,543,-937,26.1,16.4,-1.3,26.0,1.6,-29.2,5.73,2.40,-27.7,30.4
2012-06-23 01:48:00,0.0,1.8790,0.0012,396.80,0.26,17.9,18.7,138.07,30.83,24.65,36.42,0.91,-18.95,-26.98,-61,543,-937,26.1,16.5,-1.3,26.0,1.7,-28.9,5.73,2.40,-27.7,30.4
2012-06-23 01:49:00,0.0,1.8790,0.0011,396.80,0.30,18.6,25.8,138.07,30.83,24.64,36.42,0.94,-17.17,-27.00,-61,543,-937,26.1,16.7,-1.1,26.0,1.7,-28.8,5.73,2.40,-27.7,30.3
2012-06-23 01:50:00,0.0,1.8790,0.0010,396.91,0.27,18.6,23.6,138.07,30.84,24.65,36.41,0.96,-15.48,-27.01,-61,543,-937,26.1,16.2,-1.5,26.0,1.7,-28.9,5.73,2.40,-27.7,30.3
2012-06-23 01:51:00,0.0,1.8794,0.0011,396.87,0.26,18.2,22.5,138.07,30.84,24.64,36.42,0.94,-13.88,-27.02,-61,543,-937,26.1,16.0,-1.7,26.0,1.6,-29.0,5.73,2.40,-27.7,30.3
2012-06-23 01:52:00,0.0,1.8789,0.0009,396.83,0.32,13.3,21.0,138.07,30.84,24.65,36.42,0.90,-12.36,-27.02,-61,543,-937,26.1,16.4,-1.3,26.0,1.6,-29.1,5.73,2.40,-27.7,30.4
2012-06-23 01:53:00,0.0,1.8794,0.0011,396.82,0.32,18.1,21.0,138.07,30.85,24.65,36.42,0.87,-10.91,-27.02,-61,543,-937,26.1,16.4,-1.4,26.0,1.6,-29.3,5.73,2.40,-27.7,30.4
2012-06-23 01:54:00,0.0,1.8796,0.0013,396.93,0.29,18.9,24.2,138.07,30.85,24.64,36.42,0.89,-9.56,-27.01,-61,543,-937,26.1,16.3,-1.4,26.1,1.6,-29.4,5.73,2.39,-27.7,30.4
2012-06-23 01:55:00,0.0,1.8795,0.0010,396.73,0.23,17.6,21.3,138.07,30.85,24.64,36.42,0.89,-8.26,-27.02,-61,543,-937,26.1,16.2,-1.5,26.1,1.6,-29.5,5.73,2.40,-27.7,30.4
2012-06-23 01:56:00,0.0,1.8795,0.0011,396.74,0.35,23.1,27.1,138.07,30.86,24.64,36.42,0.92,-7.03,-27.01,-61,543,-937,26.1,16.6,-1.2,26.1,1.5,-29.6,5.73,2.39,-27.7,30.4
2012-06-23 01:57:00,0.0,1.8796,0.0011,396.69,0.32,22.4,24.1,138.07,30.86,24.64,36.41,0.93,-5.86,-27.00,-61,543,-937,26.1,16.2,-1.5,26.1,1.5,-29.8,5.73,2.39,-27.7,30.5
2012-06-23 01:58:00,0.0,1.8798,0.0010,396.73,0.34,23.8,22.3,138.07,30.87,24.64,36.42,0.95,-4.75,-27.00,-61,543,-937,26.2,16.1,-1.5,26.1,1.5,-29.8,5.73,2.39,-27.7,30.5
2012-06-23 01:59:00,0.0,1.8796,0.0010,396.76,0.27,27.4,28.1,138.07,30.87,24.64,36.42,0.95,-3.69,-27.00,-61,543,-937,26.2,15.7,-1.9,26.1,1.5,-29.9,5.73,2.39,-27.7,30.4
2012-06-23 02:00:00,0.0,1.8798,0.0010,396.76,0.26,19.8,25.3,138.07,30.87,24.64,36.42,0.96,-2.67,-26.99,-61,543,-937,26.2,15.9,-1.7,26.1,1.5,-30.0,5.73,2.40,-27.7,30.4
2012-06-23 02:01:00,0.0,1.8797,0.0009,396.61,0.29,23.7,27.4,138.07,30.88,24.64,36.42,0.93,-1.71,-26.99,-61,543,-937,26.1,16.6,-1.1,26.1,1.5,-30.1,5.73,2.40,-27.7,30.5
2012-06-23 02:02:00,0.0,1.8793,0.0009,396.71,0.26,29.7,31.1,138.07,30.88,24.64,36.41,0.94,-0.80,-26.98,-61,543,-937,26.2,16.7,-1.1,26.1,1.5,-30.1,5.73,2.40,-27.6,30.5
2012-06-23 02:03:00,0.0,1.8786,0.0009,396.68,0.30,27.0,27.2,138.07,30.88,24.65,36.42,0.90,0.06,-26.97,-61,543,-937,26.2,16.4,-1.3,26.1,1.5,-30.2,5.73,2.41,-27.6,30.5
2012-06-23 02:04:00,0.0,1.8788,0.0009,396.63,0.27,22.5,25.3,138.07,30.89,24.64,36.41,0.91,0.87,-26.96,-61,543,-937,26.2,16.3,-1.4,26.1,1.4,-30.4,5.73,2.40,-27.6,30.5
2012-06-23 02:05:00,0.0,1.8788,0.0009,396.67,0.29,32.4,31.8,138.07,30.89,24.64,36.41,0.89,1.64,-26.96,-61,543,-938,26.2,16.2,-1.5,26.1,1.4,-30.3,5.73,2.40,-27.6,30.5
2012-06-23 02:06:00,0.0,1.8784,0.0008,396.60,0.32,23.3,29.8,138.07,30.89,24.64,36.42,0.91,2.33,-26.95,-61,543,-937,26.2,16.1,-1.6,26.1,1.4,-30.4,5.73,2.40,-27.6,30.4
2012-06-23 02:07:00,0.0,1.8786,0.0007,396.67,0.30,20.0,25.0,138.07,30.90,24.64,36.40,0.93,2.83,-26.93,-61,543,-937,26.2,16.3,-1.4,26.1,1.4,-30.5,5.73,2.40,-27.6,30.5
2012-06-23 02:08:00,0.0,1.8784,0.0008,396.60,0.30,24.2,25.8,138.07,30.90,24.64,36.42,0.92,3.05,-26.92,-61,543,-937,26.2,16.1,-1.5,26.1,1.4,-30.6,5.73,2.40,-27.6,30.5
2012-06-23 02:09:00,0.0,1.8786,0.0010,396.56,0.30,22.2,25.4,138.07,30.91,24.64,36.41,0.94,3.42,-26.92,-61,543,-937,26.2,16.2,-1.4,26.2,1.4,-30.6,5.73,2.40,-27.6,30.5
2012-06-23 02:10:00,0.0,1.8779,0.0009,396.57,0.34,24.1,26.5,138.07,30.91,24.65,36.41,0.93,3.95,-26.90,-61,543,-937,26.2,16.3,-1.3,26.2,1.4,-30.5,5.73,2.40,-27.6,30.5
2012-06-23 02:11:00,0.0,1.8780,0.0011,396.58,0.29,19.6,26.8,138.07,30.91,24.65,36.42,0.95,4.49,-26.89,-61,543,-937,26.3,16.9,-0.8,26.2,1.4,-30.5,5.73,2.39,-27.6,30.5
2012-06-23 02:12:00,0.0,1.8785,0.0009,396.68,0.28,30.2,24.8,138.07,30.92,24.64,36.42,0.95,5.04,-26.89,-61,543,-937,26.3,16.7,-1.0,26.2,1.4,-30.7,5.73,2.39,-27.6,30.5
2012-06-23 02:13:00,0.0,1.8782,0.0011,396.71,0.31,21.4,24.9,138.07,30.92,24.65,36.42,0.95,5.57,-26.87,-61,543,-937,26.3,16.3,-1.3,26.2,1.4,-30.7,5.73,2.39,-27.6,30.6
2012-06-23 02:14:00,0.0,1.8778,0.0010,396.79,0.30,30.0,27.7,138.07,30.92,24.65,36.41,0.95,6.08,-26.86,-61,543,-937,26.3,16.2,-1.4,26.2,1.4,-30.8,5.73,2.40,-27.5,30.5
2012-06-23 02:15:00,0.0,1.8784,0.0010,396.84,0.24,22.9,26.7,138.07,30.93,24.64,36.41,0.95,6.56,-26.85,-61,543,-937,26.3,16.2,-1.4,26.2,1.4,-30.7,5.73,2.39,-27.5,30.6
2012-06-23 02:16:00,0.0,1.8781,0.0009,396.73,0.30,30.7,25.8,138.07,30.93,24.64,36.41,0.95,7.02,-26.84,-61,543,-937,26.3,16.3,-1.3,26.2,1.4,-30.7,5.73,2.40,-27.5,30.6
2012-06-23 02:17:00,0.0,1.8774,0.0009,396.52,0.30,27.5,25.0,138.07,30.94,24.64,36.42,0.95,7.46,-26.83,-61,543,-937,26.3,17.1,-0.6,26.2,1.4,-30.7,5.73,2.40,-27.5,30.6
2012-06-23 02:18:00,0.0,1.8774,0.0011,396.70,0.26,23.5,29.1,138.07,30.94,24.64,36.41,0.93,7.89,-26.82,-61,543,-937,26.3,16.2,-1.4,26.2,1.4,-30.9,5.73,2.40,-27.5,30.6
2012-06-23 02:19:00,0.0,1.8775,0.0011,396.74,0.24,28.3,27.3,138.07,30.94,24.65,36.41,0.93,8.30,-26.81,-61,543,-937,26.3,16.2,-1.4,26.2,1.4,-31.0,5.73,2.40,-27.5,30.5
2012-06-23 02:20:00,0.0,1.8772,0.0009,396.71,0.32,23.4,26.7,138.07,30.95,24.64,36.41,0.94,8.70,-26.79,-61,543,-937,26.3,16.1,-1.5,26.2,1.3,-31.1,5.73,2.40,-27.5,30.6